#timestamp,LO_Frequency,Hit,StdDev 
1509483615.4,286047000.4,N
1509483635.3,286047000.9,N
1509483655.1,286046999.7,N
1509483675.9,286047001.0,N
1509483695.7,286047001.0,N
1509483715.5,286047001.0,N
1509483735.4,286047000.9,N
1509483755.2,286047000.7,N
1509483775.0,286047000.7,N
1509483775.9,286047000.7,N
1509483795.8,286047002.1,N
1509483815.6,286046999.7,N
1509483835.5,286047000.5,N
1509483855.3,286046998.2,N
1509483875.1,286047000.8,N
1509483895.9,286047000.8,N
1509483915.7,286047000.6,N
1509483935.5,286046999.1,N
1509483955.4,286046999.1,N
1509483975.2,286046996.7,Y
1509483995.1,286046999.3,P
1509483996.0,286046999.3,N
1509484015.8,286046999.2,N
1509484035.6,286046998.9,Y
1509484055.5,286046998.1,P
1509484075.3,286047000.5,N
1509484095.2,286047002.6,N
1509484115.9,286047001.3,N
1509484135.7,286047002.3,N
1509484155.6,286047004.0,N
1509484175.4,286047003.9,N
1509484195.2,286047002.5,N
1509484215.1,286047002.2,N
1509484216.0,286047002.2,N
1509484235.8,286047002.8,N
1509484255.7,286046998.6,N
1509484275.5,286046999.3,N
1509484295.3,286046999.4,N
1509484315.2,286046998.2,N
1509484335.9,286047000.9,N
1509484355.7,286047000.0,N
1509484375.6,286046999.8,N
1509484395.4,286047002.3,N
1509484415.3,286047000.5,N
1509484435.1,286047000.8,N
1509484436.0,286047000.8,N
1509484455.8,286047000.2,N
1509484475.7,286046998.2,N
1509484495.5,286047001.0,N
1509484515.3,286047002.3,N
1509484535.2,286047001.7,N
1509484555.0,286047001.4,N
1509484555.9,286047001.4,N
1509484575.8,286047001.5,N
1509484595.6,286047002.8,N
1509484615.4,286047000.1,N
1509484635.3,286047001.6,N
1509484655.1,286047003.7,N
1509484675.8,286047003.3,N
1509484695.7,286047003.4,N
1509484715.5,286047003.0,N
1509484735.4,286047005.5,Y
1509484755.2,286047001.3,P
1509484775.0,286047000.1,N
1509484775.9,286047000.1,N
1509484795.8,286047001.0,N
1509484815.6,286046999.7,N
1509484835.5,286047002.7,Y
1509484855.3,286046999.9,P
1509484875.1,286046998.2,P
1509484895.9,286046998.4,N
1509484915.7,286046998.1,N
1509484935.5,286046998.3,N
1509484955.4,286047000.2,N
1509484975.2,286046999.8,N
1509484995.1,286046998.4,N
1509484996.0,286046998.4,N
1509485015.8,286046998.5,N
1509485035.6,286047000.6,N
1509485055.5,286046999.9,N
1509485075.3,286047002.2,N
1509485095.1,286047001.6,N
1509485115.9,286047001.1,N
1509485135.7,286047001.1,N
1509485155.6,286047001.2,N
1509485175.4,286046999.3,N
1509485195.2,286046998.4,N
1509485215.1,286047000.9,N
1509485216.0,286047000.9,N
1509485235.8,286046998.1,N
1509485255.6,286046998.6,N
1509485275.5,286046998.6,N
1509485295.3,286046998.5,N
1509485315.2,286046998.9,N
1509485335.9,286046998.5,N
1509485355.7,286047000.3,N
1509485375.6,286047000.6,N
1509485395.4,286047000.0,N
1509485415.2,286046999.7,N
1509485435.1,286047001.9,N
1509485466.0,286047002.4,E
1509485475.0,286047000.0,N
1509485475.9,286047000.0,P
1509485495.8,286046998.1,P
1509485515.6,286046996.6,Y
1509485535.5,286046998.6,P
1509485555.3,286046998.3,P
1509485575.1,286046998.1,P
1509485595.9,286046998.4,Y
1509485615.7,286046999.3,P
1509485635.5,286046997.0,P
1509485655.4,286046999.5,N
1509485675.2,286046998.3,N
1509485695.1,286046998.3,N
1509485696.0,286046998.3,N
1509485715.8,286047000.9,N
1509485735.6,286047002.2,N
1509485755.5,286047002.0,N
1509485775.3,286047000.4,N
1509485795.2,286047001.0,N
1509485815.9,286046998.2,N
1509485835.7,286046998.4,N
1509485855.6,286046998.3,N
1509485875.4,286046999.0,N
1509485895.2,286047000.8,N
1509485915.1,286046998.5,N
1509485916.0,286046998.5,N
1509485935.8,286047000.8,N
1509485955.7,286047001.0,N
1509485975.5,286047002.3,N
1509485995.3,286047002.1,N
1509486015.2,286047002.0,N
1509486035.9,286047001.5,N
1509486055.7,286047000.0,N
1509486075.6,286047000.0,N
1509486095.4,286047000.3,N
1509486115.2,286047001.6,N
1509486135.1,286047000.2,N
1509486136.0,286047000.2,N
1509486155.8,286047004.0,N
1509486175.7,286047004.0,N
1509486195.5,286047004.0,N
1509486215.3,286047002.2,N
1509486235.2,286047001.6,N
1509486255.0,286047001.5,N
1509486255.9,286047001.5,N
1509486275.7,286047004.4,N
1509486295.6,286047003.0,N
1509486315.4,286047005.6,Y
1509486335.3,286047004.3,P
1509486355.1,286047001.7,N
1509486375.8,286047001.8,N
1509486395.7,286047002.5,N
1509486415.5,286047002.8,N
1509486435.4,286046999.7,N
1509486455.2,286047000.8,N
1509486475.0,286046999.7,N
1509486475.9,286046999.7,N
1509486495.8,286046998.6,N
1509486515.6,286046998.3,N
1509486535.4,286046998.1,N
1509486555.3,286047002.7,N
1509486575.1,286046999.8,N
1509486595.9,286047000.4,N
1509486615.7,286047000.6,N
1509486635.5,286047000.9,N
1509486655.4,286047000.4,N
1509486675.2,286047000.8,N
1509486695.0,286047000.0,N
1509486695.9,286047000.0,N
1509486715.8,286046999.8,N
1509486735.6,286047002.2,N
1509486755.5,286047001.6,N
1509486775.3,286047004.0,N
1509486795.1,286047004.4,N
1509486815.9,286047002.1,N
1509486835.7,286047002.7,N
1509486855.5,286047002.1,N
1509486875.4,286047000.5,N
1509486895.2,286047001.1,N
1509486915.0,286046999.1,N
1509486916.0,286046999.1,N
1509486935.8,286046999.2,N
1509486955.6,286046998.4,N
1509486975.5,286046999.2,N
1509486995.3,286046997.3,N
1509487015.1,286046998.8,N
1509487035.9,286046998.2,N
1509487055.7,286047002.7,N
1509487075.6,286047000.8,N
1509487095.4,286047000.3,N
1509487115.2,286047000.5,N
1509487135.1,286047002.4,N
1509487136.0,286047002.4,N
1509487155.8,286047002.3,N
1509487175.6,286047000.6,N
1509487195.5,286047000.5,N
